Weather History for Princeton, BC

Change the Weather History Date:

Thursday, April 25, 2013

  Actual Average Record
Temperature  
Mean Temperature 48 °F -  
Max Temperature 68 °F - - ()
Min Temperature 27 °F - - ()
Degree Days  
Heating Degree Days 18    
Moisture  
Dew Point 31 °F    
Average Humidity 55    
Maximum Humidity 86    
Minimum Humidity 20    
Precipitation  
Precipitation 0.00 in - - ()
Sea Level Pressure  
Sea Level Pressure 30.02 in    
Wind  
Wind Speed 2 mph ()    
Max Wind Speed 13 mph    
Max Gust Speed 22 mph    
T = Trace of Precipitation, MM = Missing Value Source: Averaged Metar Reports

Daily Weather History Graph

Daily Weather History Graph

Search for Another Location

Airport:

Trip Planner

Search our weather history database for the weather conditions in past years. The results will help you decide how hot, cold, wet, or windy it might be!

Date:

Astronomy

Apr. 25, 2013 Rise Set
Actual Time 5:50 AM PDT 8:10 PM PDT
Civil Twilight 5:14 AM PDT 8:46 PM PDT
Nautical Twilight 4:30 AM PDT 9:30 PM PDT
Astronomical Twilight 3:40 AM PDT 10:21 PM PDT
Moon 8:33 PM PDT (4/25) 5:36 AM PDT (4/25)
Length of Visible Light 15h 31m
Length of Day
14h 20m
Full, 100% of the Moon is Illuminated
Apr 25
Full
Apr 25
Full
May 2
Last Quarter
May 9
New
May 17
First Quarter

Hourly Weather History & Observations

Time (PDT) Temp. Dew Point Humidity Pressure Visibility Wind Dir Wind Speed Gust Speed Precip Events Conditions
12:00 AM 38.8 °F 29.3 °F 69% 30.03 in - Calm Calm - N/A   Unknown
1:00 AM 36.3 °F 29.3 °F 76% 30.02 in - Calm Calm - N/A   Unknown
2:00 AM 35.1 °F 28.9 °F 78% 30.03 in - Calm Calm - N/A   Unknown
3:00 AM 33.4 °F 28.6 °F 82% 30.04 in - Calm Calm - N/A   Unknown
4:00 AM 31.3 °F 27.0 °F 84% 30.04 in - Calm Calm - N/A   Unknown
5:00 AM 31 °F 27 °F 80% 30.04 in - Calm Calm - -  
5:00 AM 31.1 °F 27.1 °F 85% 30.04 in - Calm Calm - N/A   Unknown
6:00 AM 29.5 °F 25.9 °F 86% 30.05 in - Calm Calm - N/A   Unknown
7:00 AM 32.0 °F 28.2 °F 86% 30.05 in - Calm Calm - N/A   Unknown
8:00 AM 37.0 °F 30.7 °F 78% 30.05 in - Calm Calm - N/A   Unknown
9:00 AM 44.1 °F 31.8 °F 62% 30.05 in - Calm Calm - N/A   Unknown
10:00 AM 49.5 °F 30.6 °F 48% 30.02 in - Calm Calm - N/A   Unknown
11:00 AM 55 °F 29 °F 24% 30.02 in - SSE 2.3 mph - -  
11:00 AM 55.2 °F 28.9 °F 37% 30.02 in - SSE 2.3 mph - N/A   Unknown
12:00 PM 59.7 °F 29.3 °F 32% 29.99 in - East 2.3 mph - N/A   Unknown
1:00 PM 63.9 °F 30.4 °F 28% 29.97 in - SSE 5.8 mph - N/A   Unknown
2:00 PM 66.6 °F 32.0 °F 28% 29.96 in - North 4.6 mph - N/A   Unknown
3:00 PM 67.5 °F 31.5 °F 26% 29.97 in - WSW 10.4 mph 18.4 mph N/A   Unknown
4:00 PM 67.1 °F 34.5 °F 30% 29.97 in - West 12.7 mph 21.9 mph N/A   Unknown
5:00 PM 66 °F 34 °F 20% 29.98 in - West 9.2 mph - -  
5:00 PM 66.0 °F 34.3 °F 31% 29.98 in - West 9.2 mph 19.6 mph N/A   Unknown
6:00 PM 63.9 °F 34.0 °F 33% 30.00 in - West 9.2 mph 19.6 mph N/A   Unknown
7:00 PM 61.0 °F 36.7 °F 40% 30.01 in - WNW 8.1 mph - N/A   Unknown
8:00 PM 57.6 °F 36.3 °F 45% 30.03 in - WNW 5.8 mph - N/A   Unknown
9:00 PM 51.4 °F 37.4 °F 59% 30.06 in - NE 1.2 mph - N/A   Unknown
10:00 PM 46.8 °F 36.9 °F 68% 30.08 in - Calm Calm - N/A   Unknown
11:00 PM 46 °F 36 °F 59% 30.09 in - NW 1.2 mph - -  
11:00 PM 46.0 °F 36.1 °F 68% 30.09 in - NW 1.2 mph - N/A   Unknown